GFSSGP_sfc_thetae_090.txt.gz
Theta_e
323 325 319 316 304 303 299 300 306 305 306 310 310 309 309 312 312 308 334 345 347 349 352 350 347 349 351 352 352 353 354 354 354 353 353 352 353 353 352 353 352 352 354 352 351 351 351 350 351
323 317 315 313 299 297 299 304 302 306 309 310 310 310 310 309 316 323 334 346 349 349 352 352 346 348 350 351 352 353 354 354 354 353 352 353 353 352 352 351 351 352 353 353 351 351 351 350 348
320 316 309 304 301 296 299 302 305 308 309 309 309 314 313 312 323 326 337 347 349 348 350 352 345 345 349 350 351 352 352 352 352 352 353 353 352 352 352 350 350 351 353 353 351 351 350 348 345
314 312 310 300 297 301 302 304 307 308 308 309 309 308 313 322 327 331 338 346 346 346 349 345 343 345 348 350 350 349 351 350 350 351 352 352 352 352 351 349 350 351 350 350 350 349 347 345 343
315 310 300 298 298 302 304 305 308 307 306 306 308 308 310 323 332 339 339 344 343 346 349 350 341 344 347 349 350 347 349 348 349 350 350 351 351 350 348 347 348 349 349 348 348 347 345 343 342
306 307 297 295 298 302 305 307 307 306 307 307 307 308 311 327 332 339 343 346 347 348 350 351 344 344 345 347 348 345 345 347 348 348 349 350 349 346 346 345 346 346 346 345 345 344 343 341 340
304 301 297 298 297 299 302 307 304 304 305 305 309 307 314 321 333 343 345 346 349 351 351 349 348 346 342 342 343 343 343 344 345 346 345 345 343 342 344 343 345 344 344 344 343 342 341 340 338
306 303 297 298 296 297 304 304 306 305 304 311 313 307 311 318 331 343 347 347 349 350 351 349 347 348 349 349 340 341 342 342 343 341 341 341 340 341 342 342 342 343 343 343 342 339 339 338 336
308 298 296 297 297 299 304 302 307 309 307 308 310 311 314 322 329 337 343 345 346 348 348 349 347 349 348 350 348 342 342 341 339 340 337 338 348 346 343 338 337 338 339 340 340 338 337 335 334
303 299 299 304 303 301 304 303 304 304 304 305 308 312 313 317 322 324 333 338 341 344 347 344 349 348 347 347 350 348 348 348 349 347 346 348 345 343 339 336 335 336 336 337 337 335 333 335 337
303 298 303 302 303 305 303 303 305 303 301 305 305 308 311 316 316 319 324 333 336 342 344 341 346 347 348 347 346 347 348 348 346 346 346 344 342 340 339 337 337 338 335 336 335 334 338 337 337
299 302 303 304 304 303 301 304 303 304 304 308 309 310 311 311 313 315 319 324 334 338 342 342 343 345 345 347 343 343 343 345 343 344 342 340 337 338 337 332 333 335 336 334 332 334 338 336 335
299 300 302 303 304 303 304 302 303 304 308 310 310 310 311 312 312 315 318 321 327 336 342 344 342 343 343 342 340 339 340 340 341 341 341 338 335 335 335 331 333 337 334 332 331 333 335 335 334
301 300 301 302 302 303 301 302 304 305 308 308 309 310 311 312 313 314 317 320 324 332 338 345 340 341 341 340 340 337 338 338 339 340 336 340 333 333 333 333 335 336 334 332 331 332 334 333 334
301 297 300 301 302 301 304 300 301 307 308 307 308 310 311 312 314 313 316 319 325 329 336 342 341 339 337 338 339 339 339 338 336 336 333 335 332 332 332 332 331 335 333 329 330 333 334 332 332
295 296 292 298 300 301 302 294 302 306 306 305 307 309 310 311 313 315 316 318 321 327 332 340 340 338 338 335 335 336 338 337 335 334 333 330 330 331 336 330 330 333 330 328 328 332 331 330 330
294 288 291 293 300 300 300 296 301 306 305 305 307 308 310 311 313 315 316 318 321 325 331 337 342 337 337 335 333 335 336 334 333 330 330 330 329 331 332 332 330 329 327 325 328 329 330 328 328
287 287 289 290 296 298 296 296 301 303 303 303 304 307 308 309 312 315 317 318 319 326 331 335 339 337 335 335 336 335 334 332 332 329 329 329 330 331 330 329 328 327 324 324 326 328 330 329 327
290 289 290 294 296 293 293 294 297 301 302 303 304 305 306 308 313 315 317 319 320 326 330 332 336 333 333 333 332 331 329 329 328 328 328 328 329 329 330 328 326 324 323 323 328 328 328 327 328
291 288 288 292 294 294 294 295 299 301 302 303 304 305 306 308 310 313 315 317 323 325 329 331 335 330 334 336 335 332 329 329 329 328 327 328 328 330 329 326 325 324 322 322 328 328 326 326 327
290 288 289 289 293 296 296 293 297 300 303 304 305 307 307 308 309 310 313 316 323 325 328 330 333 332 335 335 333 331 330 328 328 326 325 326 328 329 328 325 324 324 323 322 327 329 327 323 325
287 293 291 291 291 287 295 286 294 297 299 302 305 308 309 310 311 311 312 315 321 326 329 330 332 334 333 334 331 329 327 323 326 325 327 327 326 327 325 325 324 324 324 324 327 330 328 327 322
290 296 294 294 292 291 292 289 293 297 297 301 307 310 312 313 311 312 312 315 320 326 328 330 332 332 332 331 331 328 325 326 329 329 325 325 326 325 324 324 324 323 323 326 329 329 328 326 325
298 295 294 293 292 285 290 290 292 297 298 303 308 311 312 314 315 314 315 316 321 326 324 327 330 330 330 330 329 328 326 324 326 323 322 320 319 323 322 323 323 323 323 325 326 326 329 328 328
295 290 284 283 283 283 292 289 293 298 304 306 307 310 313 315 317 316 317 319 322 323 320 323 327 327 328 328 327 326 325 326 326 321 318 317 316 316 317 319 319 320 323 326 325 326 327 326 326
292 291 286 278 281 286 291 287 294 304 307 308 310 311 312 314 317 318 317 321 323 320 318 320 323 326 325 325 324 325 327 326 326 322 320 316 317 316 317 317 318 319 321 323 324 325 323 324 325
292 288 294 287 289 286 289 293 300 303 304 306 307 309 310 313 317 318 318 321 323 321 317 319 323 326 325 323 322 324 326 325 323 322 321 319 319 318 319 318 319 320 320 321 323 322 319 321 324
295 297 287 289 279 279 286 289 293 297 299 303 304 307 309 313 316 318 316 320 323 323 318 320 324 324 323 323 322 324 323 324 324 324 321 320 319 318 317 316 317 317 317 317 318 318 318 318 319
292 290 291 291 289 283 284 289 301 298 299 300 304 307 309 311 313 316 318 319 322 321 318 318 321 321 320 321 321 323 321 322 322 322 321 320 320 318 317 315 315 314 313 314 313 312 316 319 318
295 292 292 286 284 288 285 288 302 302 299 299 302 306 308 306 306 313 314 317 317 316 317 317 318 318 321 320 320 321 320 322 320 321 321 320 320 321 321 319 318 317 316 314 313 312 313 316 317

GFSSGP_sfc_thetae_093.txt.gz
Theta_e
326 326 321 315 304 304 300 303 308 306 307 313 314 311 311 315 311 311 333 341 343 345 350 350 348 350 352 353 353 354 354 354 354 354 353 353 354 354 354 354 354 354 354 353 352 351 351 350 350
324 322 317 310 301 298 301 307 305 307 311 314 313 312 311 311 319 325 331 343 345 344 350 351 347 349 352 352 353 354 354 355 354 354 353 353 354 354 354 352 352 353 353 353 352 351 351 351 349
323 320 309 304 301 298 300 307 307 309 312 311 311 315 314 313 320 323 338 344 343 342 348 352 347 348 350 351 352 352 353 353 353 353 353 354 353 353 353 351 351 352 353 353 352 351 350 348 346
319 314 309 301 300 304 305 308 308 309 310 312 312 309 316 323 325 328 339 343 342 342 345 345 344 346 349 351 351 352 352 351 351 351 352 353 353 353 352 349 351 352 352 352 351 349 348 345 344
316 310 301 299 300 304 307 308 308 308 310 309 311 309 312 322 327 333 338 340 340 342 347 351 342 345 348 350 351 349 350 349 350 350 351 349 352 349 347 348 349 349 350 350 349 348 345 344 343
308 308 299 298 301 305 308 309 308 308 310 311 308 309 313 326 328 334 337 341 343 344 348 351 344 345 346 348 348 346 347 348 349 349 350 350 349 346 348 348 347 348 347 346 346 345 344 342 342
306 304 299 301 302 304 307 310 307 307 308 309 312 307 313 321 331 338 340 343 344 349 350 352 349 347 343 343 345 343 345 347 346 346 347 346 345 344 346 346 345 344 346 345 344 343 342 341 338
309 306 301 302 301 302 308 306 309 307 307 313 312 306 308 321 329 338 344 344 347 351 352 352 351 350 349 349 342 342 342 343 345 344 341 342 342 342 342 342 344 343 344 343 342 341 340 339 336
312 301 299 301 301 304 307 304 309 311 308 309 311 311 317 320 324 330 341 344 346 349 351 352 351 350 350 349 347 343 343 342 342 343 340 339 348 347 345 341 339 340 340 339 339 337 337 336 335
306 301 301 306 307 305 306 306 307 306 306 307 309 313 315 316 318 322 329 338 342 345 348 351 351 350 350 346 350 348 348 348 348 348 348 349 347 347 342 339 335 336 337 337 337 335 334 335 338
306 300 305 306 308 308 306 306 309 306 304 308 307 310 313 313 315 319 320 327 337 343 345 348 350 351 350 347 347 346 347 346 347 349 346 346 345 346 346 340 337 336 336 338 336 334 336 339 339
302 305 306 307 308 307 305 307 305 307 307 311 311 312 312 312 313 316 317 320 327 337 342 349 348 349 350 348 345 345 344 347 346 347 350 347 345 345 342 338 338 336 334 337 334 334 334 336 337
302 303 305 307 306 306 307 304 304 305 310 312 312 311 312 312 313 315 316 319 323 329 339 347 345 348 348 350 347 346 346 345 347 347 346 345 342 341 340 335 336 337 335 332 331 332 332 332 334
302 302 302 303 303 305 302 303 305 307 310 310 310 311 312 313 314 314 315 317 320 324 333 348 347 347 347 347 346 346 345 344 345 344 345 345 343 340 337 335 334 334 334 332 331 331 330 330 331
304 299 301 302 302 302 305 300 301 307 309 309 309 311 311 313 314 315 316 317 320 323 327 345 350 345 346 344 344 343 343 343 341 343 345 343 342 340 337 333 333 337 333 335 331 330 330 329 331
296 298 293 299 300 302 301 295 303 308 308 307 309 310 311 313 314 316 318 317 319 322 326 334 343 343 343 342 343 342 342 343 342 340 342 341 340 337 335 331 334 333 332 332 329 328 327 327 328
295 288 290 295 300 299 300 297 303 307 306 306 308 309 311 312 314 316 318 318 318 321 324 331 342 343 339 340 342 341 341 340 341 341 339 338 337 336 333 336 332 332 329 329 330 327 327 326 328
288 288 291 291 296 298 296 298 302 304 305 305 306 307 308 310 312 315 317 319 318 320 325 330 339 344 339 339 338 337 338 338 336 336 337 335 335 334 335 332 330 333 328 327 328 326 326 327 326
292 291 290 293 297 297 295 296 297 301 302 301 303 305 306 307 311 314 317 319 320 321 323 329 335 343 338 334 332 333 332 332 333 333 333 334 333 331 331 330 330 330 325 326 326 326 324 324 330
292 290 290 293 295 294 293 294 298 301 302 303 304 305 307 308 310 312 314 317 319 320 322 329 332 338 337 334 336 338 335 334 333 333 331 332 331 331 329 330 328 327 325 324 324 324 322 323 327
291 290 290 290 293 296 295 292 296 301 304 304 306 307 308 309 310 311 313 315 319 320 324 327 331 336 337 338 338 336 335 331 329 330 331 331 331 330 329 329 327 325 324 324 324 325 323 322 325
287 294 292 291 290 285 297 287 296 299 300 302 304 308 312 314 314 315 314 314 316 321 326 329 331 336 334 338 336 334 328 325 328 330 330 328 328 328 328 328 326 324 325 323 323 325 324 325 321
290 295 293 293 290 290 292 290 293 299 296 301 306 309 312 315 315 315 315 315 316 320 325 330 331 334 335 338 336 334 331 331 330 330 330 329 327 327 327 326 325 324 323 324 324 324 326 326 325
297 294 294 294 292 285 289 289 291 295 299 302 308 310 313 315 317 318 317 317 316 319 328 331 331 332 334 335 335 334 332 330 326 329 329 327 326 325 325 325 325 324 324 324 324 326 326 326 328
295 292 284 283 283 282 293 290 292 300 305 305 307 310 313 316 318 318 318 316 317 320 327 330 330 331 333 333 333 333 331 329 327 327 328 323 321 322 323 323 323 323 323 324 324 325 328 329 328
292 291 285 279 281 285 293 287 292 305 307 308 310 311 313 314 318 319 319 320 321 324 327 326 329 329 331 332 332 331 330 327 328 328 326 322 319 320 322 323 323 323 323 323 325 326 328 328 327
291 289 294 288 290 287 290 294 302 304 304 305 306 309 310 313 315 320 321 320 324 326 322 322 328 329 330 330 330 328 327 327 327 326 323 320 319 317 318 320 321 322 323 323 323 323 323 325 326
294 296 287 290 280 280 286 289 292 298 299 302 303 307 309 311 312 314 321 320 324 325 320 321 327 327 327 327 328 326 325 326 327 325 320 318 319 318 317 318 318 319 321 322 321 321 323 324 326
291 291 292 292 290 283 283 288 301 299 299 299 302 306 308 309 307 307 316 322 324 325 320 320 324 325 325 325 324 324 323 325 326 325 322 318 318 318 317 318 318 318 319 320 321 322 321 320 320
295 292 293 286 285 289 288 289 302 302 300 302 304 306 308 308 303 303 305 316 320 319 320 319 324 323 323 323 322 323 323 323 323 323 321 320 317 317 317 316 316 315 314 315 315 314 315 314 314

GFSSGP_sfc_thetae_096.txt.gz
Theta_e
324 323 321 315 301 301 297 299 306 305 307 311 313 311 309 312 313 311 334 339 348 344 350 350 350 351 352 353 354 353 353 354 354 354 353 354 354 354 354 354 354 355 355 354 352 352 351 351 350
320 320 318 309 297 294 296 304 303 307 311 314 313 312 310 309 321 325 332 340 348 346 347 349 348 350 352 352 353 354 354 354 354 354 354 354 354 352 353 353 353 353 354 354 352 352 351 350 349
319 319 309 302 297 294 297 305 307 309 312 312 310 313 312 311 320 326 337 341 344 345 346 348 347 349 351 352 352 353 353 353 353 353 354 353 353 353 353 351 352 352 353 354 352 352 351 348 346
313 314 310 298 296 301 301 305 308 308 311 311 310 307 315 325 325 328 339 340 340 343 346 343 345 347 350 351 352 352 352 351 351 351 352 353 353 353 351 350 351 352 351 352 352 351 348 345 344
312 310 299 296 297 301 305 308 309 307 308 310 310 307 311 321 330 335 339 339 339 344 349 346 343 346 349 351 351 351 350 349 350 351 351 352 352 351 349 348 350 350 350 350 349 349 346 344 343
305 306 297 295 298 303 306 309 308 307 308 310 308 308 312 326 326 334 340 342 346 351 351 347 345 346 347 349 349 348 348 348 349 349 350 350 350 347 347 347 347 348 348 347 346 345 344 343 342
305 302 297 298 299 302 306 311 308 307 307 307 312 307 312 317 332 338 339 343 349 352 351 347 345 346 344 344 344 343 345 346 347 347 347 347 345 344 346 346 346 345 345 344 345 344 342 342 341
310 305 299 300 299 300 307 309 309 307 306 314 312 306 308 324 331 345 350 343 349 352 353 348 347 346 345 346 342 342 342 345 345 346 345 344 343 342 343 343 343 343 343 342 342 341 340 338 339
312 300 297 299 300 302 309 306 310 310 307 309 311 311 316 324 327 335 341 344 346 350 351 351 349 347 347 346 345 342 344 343 344 345 343 339 346 344 344 341 339 340 340 339 339 337 337 334 334
303 301 299 304 305 304 307 307 307 306 306 306 308 313 315 318 318 322 333 337 341 345 349 349 349 348 348 346 346 345 346 345 346 346 346 345 345 344 342 340 337 338 337 337 337 337 335 334 334
302 299 304 305 307 307 306 306 309 305 303 307 307 310 313 313 314 317 321 332 338 343 345 348 347 349 349 344 346 344 345 344 345 346 346 346 343 343 341 337 336 336 336 335 335 334 335 335 335
299 303 304 305 307 306 304 307 305 306 307 311 311 312 313 312 312 313 318 318 323 339 344 346 348 348 349 347 346 344 343 343 343 345 345 343 341 341 339 337 334 333 333 332 334 333 332 332 334
300 301 304 306 306 306 306 303 304 305 309 310 311 311 311 311 312 313 313 318 318 324 341 345 345 347 348 347 345 346 343 343 344 344 345 344 341 340 338 337 335 332 332 332 332 330 329 331 331
301 301 301 303 303 304 302 302 303 305 308 308 309 309 310 311 312 312 313 314 316 320 328 346 344 346 346 345 346 344 346 345 344 344 343 343 341 340 337 335 333 333 333 333 331 330 328 329 330
301 297 299 300 301 300 302 298 299 305 306 305 307 309 310 311 312 312 314 314 315 317 324 345 344 345 345 345 345 344 343 343 342 342 343 342 341 338 336 334 333 332 333 331 330 329 329 328 329
297 298 292 299 301 302 301 294 301 305 305 305 306 308 309 310 312 313 315 316 315 316 320 342 346 344 344 344 343 340 343 341 340 340 342 341 340 338 335 334 332 332 331 331 329 328 328 327 326
295 289 291 294 299 298 297 294 300 304 303 303 305 308 309 309 311 313 315 316 316 316 320 328 345 344 342 343 340 338 340 341 339 339 338 340 339 337 334 332 332 332 331 330 328 327 327 325 325
288 289 291 291 296 296 294 295 299 302 303 304 304 306 307 308 311 314 315 316 317 317 318 327 345 344 342 341 339 338 337 337 339 338 337 337 337 336 334 332 331 331 329 328 327 325 326 325 324
292 291 290 294 296 295 294 294 297 301 302 300 302 303 304 306 309 311 315 319 318 320 320 326 336 342 340 338 335 334 332 334 334 337 337 336 334 333 333 331 330 330 328 327 327 325 324 323 325
292 290 290 293 296 294 292 292 295 297 298 300 300 301 303 305 307 309 311 315 319 318 320 324 333 341 338 337 336 334 332 333 333 332 333 333 332 332 331 331 329 328 327 326 326 324 322 323 324
291 290 290 289 293 294 292 290 293 298 300 301 302 304 305 306 307 310 312 314 316 319 322 324 329 341 339 337 335 334 334 334 332 330 329 330 331 331 330 330 329 328 327 325 325 324 322 320 322
287 294 293 291 289 284 292 283 291 297 299 300 301 303 306 312 314 315 315 315 316 319 323 323 326 330 340 336 333 333 331 327 328 328 329 329 330 330 330 329 328 327 326 325 324 325 323 322 318
291 295 292 292 289 288 288 285 290 296 295 299 304 309 313 315 316 316 316 317 316 317 323 325 326 328 337 335 335 333 331 329 328 328 328 327 328 329 328 328 327 326 326 325 324 324 323 322 320
297 293 292 292 289 282 287 287 288 292 296 301 307 309 312 314 316 317 318 318 316 317 322 326 327 330 335 335 335 334 329 329 327 326 326 326 326 326 327 327 326 325 324 324 324 324 324 323 322
294 290 282 280 281 280 290 287 290 296 303 305 306 308 311 314 315 317 316 317 316 316 322 327 327 328 333 332 334 334 331 331 329 326 326 326 324 323 324 325 324 324 324 324 325 324 324 323 321
291 290 284 277 279 283 290 284 291 300 306 307 308 309 311 311 313 314 315 320 320 320 327 327 327 327 332 331 333 332 329 329 328 326 327 325 322 323 325 324 324 324 324 324 324 324 323 323 322
291 287 294 287 287 283 288 291 299 302 303 305 305 307 308 309 309 310 313 317 322 326 327 327 326 327 331 330 329 328 329 327 326 326 325 323 321 321 322 323 323 323 323 323 323 323 321 321 323
293 295 286 288 280 279 285 287 289 295 299 300 301 304 306 307 307 306 309 310 320 323 323 324 327 326 328 327 327 326 325 326 326 325 322 320 319 319 319 319 322 322 322 323 323 322 322 322 322
291 289 290 290 288 280 281 287 298 295 296 298 302 305 305 304 303 302 302 306 309 322 320 321 324 324 324 324 324 323 323 324 324 323 321 319 318 318 317 317 318 321 321 322 322 321 321 321 321
293 291 291 285 284 288 287 286 298 299 299 302 303 304 304 303 301 299 298 299 300 306 319 319 321 321 322 323 322 322 322 323 324 322 320 319 317 318 318 318 317 316 318 321 320 319 320 320 318

GFSSGP_sfc_thetae_099.txt.gz
Theta_e
319 318 314 307 293 289 285 291 298 298 300 302 307 306 303 306 312 309 334 342 344 344 347 349 349 352 352 353 352 352 353 354 354 353 353 354 354 354 353 353 354 355 356 354 353 352 352 351 350
314 315 309 302 288 283 286 296 297 300 305 309 308 307 305 306 321 327 334 341 344 346 347 347 348 350 351 352 352 352 354 354 354 353 353 354 354 354 353 352 352 354 355 354 353 352 351 349 348
314 314 300 294 287 286 286 296 299 303 308 307 305 306 307 310 323 326 340 341 342 342 346 347 347 348 350 351 352 351 352 352 352 353 354 354 354 354 353 352 352 354 353 354 352 352 350 347 346
307 305 302 290 287 291 294 298 301 301 306 306 304 303 310 322 325 331 341 342 340 340 345 343 344 347 349 350 351 351 351 350 350 351 353 353 354 354 353 351 352 353 353 353 353 351 348 345 344
303 299 292 287 290 294 298 300 302 303 304 307 305 301 305 324 333 335 335 338 337 340 342 343 342 346 348 350 350 350 349 348 349 350 351 352 352 352 350 349 350 350 351 351 350 348 346 344 343
295 296 287 289 292 296 299 301 303 304 305 304 302 302 308 322 328 331 334 335 344 342 342 343 345 346 346 348 348 347 347 347 347 349 350 351 350 349 348 348 347 348 348 348 347 346 344 343 343
295 291 289 289 292 295 300 304 303 304 303 302 307 302 305 324 327 331 333 343 345 344 341 341 342 345 344 344 344 344 345 346 345 347 347 347 346 345 346 346 346 347 346 344 344 344 343 343 341
300 297 293 294 293 294 302 304 304 302 301 310 307 301 301 321 330 332 332 340 345 343 341 339 339 340 340 342 341 342 343 343 344 346 345 344 343 343 344 342 343 343 345 345 342 341 340 339 337
304 296 293 294 295 298 305 303 307 306 302 304 307 308 319 325 329 329 331 335 341 343 341 340 340 339 339 339 341 342 343 343 343 345 343 340 342 341 342 341 341 341 341 339 340 339 337 335 334
294 292 295 299 300 299 303 301 301 303 302 302 305 310 318 321 323 326 328 330 336 338 341 340 340 339 340 344 340 338 341 342 344 345 344 340 340 340 342 339 337 337 337 337 337 336 336 336 334
295 292 297 299 303 304 301 301 303 301 299 302 302 305 308 310 312 320 328 331 336 340 343 341 342 341 340 340 339 340 340 340 340 341 341 340 341 338 335 333 334 334 336 334 332 332 334 334 334
293 298 298 299 302 302 301 302 301 302 302 306 305 306 307 307 306 308 314 328 332 338 342 342 342 342 341 339 339 339 340 339 340 341 340 340 336 334 333 332 332 332 332 331 330 331 333 333 335
294 296 299 301 301 301 302 300 300 301 302 305 306 306 305 306 307 307 309 312 317 333 341 342 341 342 343 338 340 338 339 339 339 339 339 339 335 335 333 331 331 331 331 329 328 329 328 329 331
296 297 297 298 299 298 298 298 298 301 302 303 305 304 305 305 306 306 306 306 311 312 338 342 341 342 342 342 338 338 338 338 339 339 340 337 336 336 334 331 330 329 330 329 330 327 327 328 330
299 293 296 296 295 295 297 293 294 298 301 301 303 304 305 305 307 307 306 307 307 309 317 340 341 343 342 341 339 337 337 338 338 339 339 337 337 335 333 332 330 331 330 330 329 328 327 327 329
293 293 287 295 297 298 294 289 297 300 299 300 301 303 305 306 307 309 307 308 309 310 311 340 342 341 342 341 340 338 336 335 334 337 338 336 335 335 332 331 329 330 330 330 329 328 326 325 326
289 284 287 290 296 296 293 291 297 299 300 300 301 301 303 305 307 308 309 310 311 311 310 335 341 340 340 339 340 337 336 334 333 333 336 336 335 334 332 331 331 331 330 329 328 327 326 324 325
282 285 287 287 293 294 292 291 295 296 297 296 296 299 300 302 306 309 309 311 310 313 311 329 341 339 339 339 336 334 335 337 334 331 333 335 335 333 330 329 329 329 328 328 328 327 327 326 325
287 286 285 288 292 291 290 288 292 295 296 295 296 295 296 301 304 305 306 308 309 310 312 324 339 338 339 336 333 332 332 334 335 335 332 335 336 334 332 331 330 330 328 326 327 326 325 323 325
287 284 284 288 292 291 289 287 289 292 292 295 294 295 296 297 300 302 305 303 308 308 310 324 339 338 338 337 335 333 333 333 333 334 334 334 333 333 332 330 329 329 327 327 326 325 323 323 324
288 285 285 286 290 290 288 286 288 293 295 297 299 298 299 298 298 301 303 303 303 309 310 329 338 338 337 335 333 330 329 331 330 330 331 331 332 332 331 330 329 329 328 326 326 324 323 320 322
283 291 289 287 287 281 287 279 286 290 293 295 297 300 300 299 300 306 309 309 308 308 310 329 338 336 335 334 332 329 328 326 329 330 330 330 331 330 330 330 328 328 327 326 326 325 324 322 319
287 291 290 289 287 283 284 280 285 291 291 294 299 298 300 301 308 311 312 312 312 309 311 323 336 335 334 333 331 329 327 327 329 328 327 328 328 329 328 328 328 327 327 326 325 325 323 323 321
291 289 290 289 286 278 284 283 283 288 292 296 303 307 309 310 310 312 314 314 316 316 310 314 330 335 333 331 329 328 327 326 325 324 324 326 326 327 327 328 327 327 327 325 325 325 323 323 322
289 286 278 277 278 277 287 284 285 293 296 300 304 304 306 307 308 308 309 310 312 313 311 316 321 332 331 329 329 329 328 327 323 322 323 322 323 324 324 326 325 326 326 325 325 325 324 323 321
286 286 279 274 275 279 287 281 287 295 299 304 306 305 305 305 305 304 306 308 309 316 315 317 325 329 329 329 328 328 329 329 327 324 324 323 323 323 323 324 326 326 326 325 325 325 324 323 322
287 283 288 283 286 281 285 290 297 299 301 301 303 302 301 301 301 301 302 304 304 316 318 317 320 324 327 326 326 327 329 327 325 325 324 321 319 321 323 325 324 324 324 324 324 324 323 323 322
291 293 283 284 277 276 284 286 285 290 293 298 299 298 298 298 297 297 298 301 302 304 315 317 319 320 324 325 326 326 324 325 324 323 319 317 317 319 319 322 323 323 323 323 323 322 323 322 322
287 286 287 288 285 280 279 283 289 291 297 298 297 296 295 294 294 294 295 298 299 301 302 309 318 318 320 325 323 323 322 323 323 321 318 318 318 317 317 318 319 321 322 322 322 322 322 321 321
292 288 289 280 281 285 284 282 294 296 298 297 297 297 295 293 292 292 292 293 295 295 297 299 306 319 320 322 322 321 322 322 322 320 317 318 317 317 317 317 318 319 321 321 321 320 321 319 319